Location: Mesa
(33.4220°N, 111.8220°W)
Time: 02:04:57
(UTC-07:00)

Hubble Space Telescope - Pass Details

Date: 29 November 2019
Orbit: 536 x 540 km, 28.5° (Epoch: 09 December)

Event Time Altitude Azimuth Distance (km) Brightness Sun altitude
Rises 18:54:10 0° 258° (WSW) 2,667 6.0 -19.4°
Reaches altitude 10° 18:57:47 10° 226° (SW) 1,775 4.2 -20.1°
Maximum altitude 18:59:17 12° 204° (SSW) 1,666 3.7 -20.4°
Drops below altitude 10° 19:00:46 10° 183° (S) 1,774 3.6 -20.7°
Enters shadow 19:03:01 - 159° (SSE) 2,258 3.9 -21.2°
